When you browse on this site, cookies collect data to enhance your experience and personalize the content and advertising you see.
Visit our Privacy Policy to learn more. By continuing to use the site, you agree to this use of cookies and data.
  • în România
  • Lista ţărilor
  • Pe 7 zile
  • Temperatura apei
  • Meteo pe hartă
  • Widget-uri
  • user-avatar
    Intrare

    Meteo pe oră la Stirling

    Astăzi, 21 Octombrie, Luni

    Timp Temperatura Precipitaţii Vânt Presiune Umiditate
    00:00 +5°C° 0 mm 1 m/s 766 mmHg 87%
    01:00 +5°C° 0 mm 1 m/s 766 mmHg 87%
    02:00 +4°C° 0 mm 1 m/s 766 mmHg 87%
    03:00 +4°C° 0 mm 1 m/s 766 mmHg 88%
    04:00 +4°C° 0 mm 1 m/s 766 mmHg 88%
    05:00 +4°C° 0 mm 1 m/s 766 mmHg 87%
    06:00 +3°C° 0 mm 1 m/s 767 mmHg 87%
    07:00 +4°C° 0 mm 1 m/s 766 mmHg 85%
    08:00 +5°C° 0 mm 1 m/s 766 mmHg 82%
    09:00 +6°C° 0 mm 1 m/s 766 mmHg 79%
    10:00 +7°C° 0 mm 1 m/s 766 mmHg 76%
    11:00 +7°C° 0 mm 2 m/s 766 mmHg 73%
    12:00 +9°C° 0 mm 2 m/s 766 mmHg 70%
    13:00 +9°C° 0 mm 3 m/s 766 mmHg 71%
    14:00 +9°C° 0 mm 3 m/s 765 mmHg 73%
    15:00 +9°C° 0 mm 3 m/s 764 mmHg 74%
    16:00 +8°C° 0 mm 3 m/s 764 mmHg 78%
    17:00 +5°C° 0 mm 3 m/s 764 mmHg 82%
    18:00 +4°C° 0 mm 3 m/s 764 mmHg 86%
    19:00 +4°C° 0 mm 3 m/s 764 mmHg 87%
    20:00 +4°C° 0 mm 3 m/s 763 mmHg 87%
    21:00 +4°C° 0 mm 3 m/s 763 mmHg 88%
    22:00 +5°C° 0 mm 3 m/s 763 mmHg 87%
    23:00 +5°C° 0 mm 3 m/s 762 mmHg 87%

    Mâine, 22 Octombrie, Marţi

    Timp Temperatura Precipitaţii Vânt Presiune Umiditate
    00:00 +6°C° 0 mm 4 m/s 762 mmHg 86%
    01:00 +6°C° 0 mm 4 m/s 762 mmHg 87%
    02:00 +6°C° 0 mm 4 m/s 761 mmHg 87%
    03:00 +6°C° 0 mm 4 m/s 761 mmHg 88%
    04:00 +7°C° 0 mm 4 m/s 761 mmHg 88%
    05:00 +7°C° 0 mm 4 m/s 761 mmHg 88%
    06:00 +7°C° 0 mm 5 m/s 761 mmHg 87%
    07:00 +7°C° 0 mm 5 m/s 761 mmHg 86%
    08:00 +8°C° 0 mm 5 m/s 761 mmHg 85%
    09:00 +8°C° 0 mm 5 m/s 760 mmHg 84%
    10:00 +8°C° 0 mm 5 m/s 761 mmHg 83%
    11:00 +9°C° 0 mm 5 m/s 761 mmHg 82%
    12:00 +9°C° 0 mm 6 m/s 761 mmHg 80%
    13:00 +9°C° 0 mm 6 m/s 760 mmHg 81%
    14:00 +9°C° 0 mm 6 m/s 760 mmHg 81%
    15:00 +9°C° 0 mm 6 m/s 760 mmHg 82%
    16:00 +9°C° 0 mm 5 m/s 760 mmHg 82%
    17:00 +8°C° 0 mm 5 m/s 760 mmHg 83%
    18:00 +8°C° 0 mm 5 m/s 760 mmHg 83%
    19:00 +8°C° 0 mm 5 m/s 759 mmHg 83%
    20:00 +8°C° 0 mm 4 m/s 759 mmHg 83%
    21:00 +8°C° 0 mm 4 m/s 759 mmHg 83%
    22:00 +8°C° 0 mm 4 m/s 759 mmHg 84%
    23:00 +8°C° 0 mm 5 m/s 759 mmHg 84%

    Poimâine, 23 Octombrie, Miercuri

    Timp Temperatura Precipitaţii Vânt Presiune Umiditate
    00:00 +8°C° 0 mm 5 m/s 758 mmHg 84%
    01:00 +8°C° 0 mm 5 m/s 758 mmHg 84%
    02:00 +8°C° 0 mm 5 m/s 757 mmHg 84%
    03:00 +8°C° 0 mm 5 m/s 757 mmHg 84%
    04:00 +8°C° 0 mm 5 m/s 757 mmHg 84%
    05:00 +8°C° 0 mm 4 m/s 756 mmHg 85%
    06:00 +8°C° 0 mm 4 m/s 756 mmHg 86%
    07:00 +8°C° 0 mm 4 m/s 755 mmHg 84%
    08:00 +10°C° 0 mm 4 m/s 755 mmHg 83%
    09:00 +9°C° 0 mm 5 m/s 755 mmHg 82%
    10:00 +9°C° 0 mm 5 m/s 754 mmHg 80%
    11:00 +10°C° 0 mm 6 m/s 754 mmHg 78%
    12:00 +10°C° 0 mm 6 m/s 753 mmHg 77%
    13:00 +10°C° 0 mm 6 m/s 752 mmHg 77%
    14:00 +10°C° 0 mm 6 m/s 752 mmHg 77%
    15:00 +10°C° 0 mm 6 m/s 751 mmHg 78%
    16:00 +10°C° 0.4 mm 6 m/s 750 mmHg 81%
    17:00 +10°C° 0.4 mm 6 m/s 750 mmHg 84%
    18:00 +9°C° 0.4 mm 6 m/s 749 mmHg 87%
    19:00 +10°C° 0.7 mm 6 m/s 749 mmHg 88%
    20:00 +10°C° 0.7 mm 6 m/s 749 mmHg 89%
    21:00 +10°C° 0.7 mm 6 m/s 749 mmHg 91%
    22:00 +10°C° 1 mm 5 m/s 748 mmHg 91%
    23:00 +10°C° 1 mm 4 m/s 748 mmHg 92%

    24 Octombrie, Joi

    Timp Temperatura Precipitaţii Vânt Presiune Umiditate
    00:00 +10°C° 1 mm 3 m/s 748 mmHg 93%
    01:00 +10°C° 0.1 mm 3 m/s 748 mmHg 93%
    02:00 +9°C° 0.1 mm 2 m/s 748 mmHg 93%
    03:00 +8°C° 0.1 mm 2 m/s 747 mmHg 93%
    04:00 +8°C° 0 mm 2 m/s 747 mmHg 93%
    05:00 +8°C° 0 mm 2 m/s 747 mmHg 94%
    06:00 +7°C° 0 mm 2 m/s 747 mmHg 94%
    07:00 +8°C° 0 mm 3 m/s 747 mmHg 92%
    08:00 +8°C° 0 mm 3 m/s 747 mmHg 91%
    09:00 +8°C° 0 mm 4 m/s 747 mmHg 89%
    10:00 +8°C° 0.2 mm 4 m/s 747 mmHg 87%
    11:00 +9°C° 0.2 mm 5 m/s 747 mmHg 85%
    12:00 +9°C° 0.2 mm 6 m/s 747 mmHg 83%
    13:00 +9°C° 0.3 mm 6 m/s 747 mmHg 81%
    14:00 +9°C° 0.3 mm 6 m/s 746 mmHg 79%
    15:00 +9°C° 0.3 mm 6 m/s 746 mmHg 77%
    16:00 +8°C° 0.1 mm 6 m/s 746 mmHg 79%
    17:00 +7°C° 0.1 mm 5 m/s 746 mmHg 80%
    18:00 +6°C° 0.1 mm 5 m/s 746 mmHg 82%
    19:00 +7°C° 0.3 mm 5 m/s 746 mmHg 84%
    20:00 +7°C° 0.3 mm 6 m/s 747 mmHg 86%
    21:00 +7°C° 0.3 mm 6 m/s 747 mmHg 88%
    22:00 +7°C° 0.2 mm 6 m/s 747 mmHg 88%
    23:00 +5°C° 0.2 mm 6 m/s 748 mmHg 88%

    25 Octombrie, Vineri

    Timp Temperatura Precipitaţii Vânt Presiune Umiditate
    00:00 +6°C° 0.2 mm 5 m/s 748 mmHg 88%
    01:00 +6°C° 0.1 mm 5 m/s 749 mmHg 87%
    02:00 +5°C° 0.1 mm 5 m/s 750 mmHg 86%
    03:00 +5°C° 0.1 mm 4 m/s 751 mmHg 86%
    04:00 +4°C° 0 mm 4 m/s 752 mmHg 87%
    05:00 +4°C° 0 mm 3 m/s 753 mmHg 88%
    06:00 +3°C° 0 mm 3 m/s 754 mmHg 90%
    07:00 +4°C° 0 mm 3 m/s 755 mmHg 87%
    08:00 +4°C° 0 mm 3 m/s 755 mmHg 85%
    09:00 +5°C° 0 mm 3 m/s 756 mmHg 82%
    10:00 +5°C° 0 mm 3 m/s 756 mmHg 77%
    11:00 +5°C° 0 mm 4 m/s 756 mmHg 71%
    12:00 +6°C° 0 mm 4 m/s 757 mmHg 66%
    13:00 +5°C° 0.1 mm 3 m/s 756 mmHg 72%
    14:00 +5°C° 0.1 mm 3 m/s 755 mmHg 78%
    15:00 +4°C° 0.1 mm 3 m/s 755 mmHg 84%
    16:00 +4°C° 1.2 mm 2 m/s 754 mmHg 88%
    17:00 +4°C° 1.2 mm 1 m/s 753 mmHg 92%
    18:00 +4°C° 1.2 mm 1 m/s 752 mmHg 97%
    19:00 +4°C° 0.6 mm 1 m/s 751 mmHg 96%
    20:00 +4°C° 0.6 mm 1 m/s 751 mmHg 96%
    21:00 +4°C° 0.6 mm 1 m/s 751 mmHg 96%
    22:00 +4°C° 0 mm 1 m/s 751 mmHg 96%
    23:00 +3°C° 0 mm 2 m/s 751 mmHg 95%

    26 Octombrie, Sâmbătă

    Timp Temperatura Precipitaţii Vânt Presiune Umiditate
    00:00 +3°C° 0 mm 2 m/s 752 mmHg 94%
    01:00 +3°C° 0 mm 2 m/s 752 mmHg 94%
    02:00 +3°C° 0 mm 2 m/s 752 mmHg 94%
    03:00 +2°C° 0 mm 2 m/s 752 mmHg 94%
    04:00 +2°C° 0 mm 3 m/s 752 mmHg 92%
    05:00 +2°C° 0 mm 3 m/s 752 mmHg 91%
    06:00 +2°C° 0 mm 3 m/s 752 mmHg 90%
    07:00 +3°C° 0 mm 4 m/s 752 mmHg 88%
    08:00 +3°C° 0 mm 4 m/s 752 mmHg 85%
    09:00 +3°C° 0 mm 5 m/s 753 mmHg 83%
    10:00 +5°C° 0.4 mm 5 m/s 753 mmHg 84%
    11:00 +4°C° 0.4 mm 6 m/s 754 mmHg 85%
    12:00 +5°C° 0.4 mm 6 m/s 754 mmHg 86%
    13:00 +5°C° 0.1 mm 6 m/s 754 mmHg 84%
    14:00 +6°C° 0.1 mm 5 m/s 755 mmHg 82%
    15:00 +7°C° 0.1 mm 5 m/s 756 mmHg 80%
    16:00 +6°C° 0 mm 5 m/s 756 mmHg 82%
    17:00 +5°C° 0 mm 5 m/s 757 mmHg 84%
    18:00 +3°C° 0 mm 5 m/s 758 mmHg 86%
    19:00 +3°C° 0 mm 5 m/s 758 mmHg 86%
    20:00 +3°C° 0 mm 5 m/s 759 mmHg 85%
    21:00 +3°C° 0 mm 5 m/s 760 mmHg 84%
    22:00 +3°C° 0 mm 5 m/s 761 mmHg 84%
    23:00 +3°C° 0 mm 5 m/s 761 mmHg 85%

    27 Octombrie, Duminică

    Timp Temperatura Precipitaţii Vânt Presiune Umiditate
    00:00 +3°C° 0 mm 5 m/s 762 mmHg 85%
    01:00 +4°C° 0 mm 4 m/s 763 mmHg 86%
    02:00 +3°C° 0 mm 4 m/s 763 mmHg 87%
    03:00 +3°C° 0 mm 4 m/s 764 mmHg 88%
    04:00 +3°C° 0 mm 3 m/s 764 mmHg 88%
    05:00 +3°C° 0 mm 3 m/s 765 mmHg 89%
    06:00 +3°C° 0 mm 3 m/s 765 mmHg 89%
    07:00 +3°C° 0 mm 3 m/s 766 mmHg 88%
    08:00 +5°C° 0 mm 2 m/s 766 mmHg 86%
    09:00 +5°C° 0 mm 2 m/s 767 mmHg 84%
    10:00 +5°C° 0 mm 3 m/s 767 mmHg 79%
    11:00 +8°C° 0 mm 3 m/s 768 mmHg 74%
    12:00 +9°C° 0 mm 3 m/s 768 mmHg 70%
    13:00 +9°C° 0 mm 3 m/s 768 mmHg 71%
    14:00 +9°C° 0 mm 2 m/s 768 mmHg 72%
    15:00 +9°C° 0 mm 2 m/s 768 mmHg 73%
    16:00 +7°C° 0 mm 2 m/s 768 mmHg 77%
    17:00 +7°C° 0 mm 1 m/s 768 mmHg 81%
    18:00 +5°C° 0 mm 1 m/s 769 mmHg 85%
    19:00 +5°C° 0 mm 1 m/s 769 mmHg 86%
    20:00 +5°C° 0 mm 1 m/s 769 mmHg 87%
    21:00 +4°C° 0 mm 1 m/s 769 mmHg 87%
    22:00 +4°C° 0 mm 1 m/s 769 mmHg 87%
    23:00 +4°C° 0 mm 1 m/s 769 mmHg 88%
    Arată mai mult